Aérodrome :
LOGIN :

S'inscrire | Disclaimer

   EN    FR    IT 

 










Légende :    VFR   VFR Marginal   IFR   IFR Intensif   IFR Très Intensif
Visi : 
Plafond : 
>= 8 km
>= 3000ft
5 à 8 km
1000 à 3000 ft
1500m à 5 km
500 à 1000 ft
800 à 1500m
200 à 500 ft
< 800m
< 200 ft
Symboles :   Orages  Brouillard  Fortes neiges  Fortes précipitations  Vent > 20 kt
SIGMETs :   Divers  Orages  Givrage  Turbulence  Onde Orograph.  Cendres Volcan.







- Altitude de l'aérodrome : 538 ft
- Code IATA : TNF
- Voir les cartes d'approche


LFPN - Toussus Le Noble

DERNIER METAR :
  • 172300Z AUTO 00000KT 7000 NSC M01/M02 Q1025

METARs EXPIRÉS :
  • 172230Z AUTO 00000KT 6000 NSC M00/M01 Q1025
  • 172200Z AUTO 27002KT 9999 4700 NSC M00/M02 Q1025
  • 172130Z AUTO 00000KT 7000 NSC 00/M01 Q1024
  • 172100Z AUTO 00000KT 9000 NSC 00/M01 Q1024 TEMPO 3000 BR
  • 172030Z AUTO VRB02KT CAVOK 01/00 Q1024 TEMPO 3000 BR
  • 172000Z AUTO 00000KT CAVOK 01/M00 Q1024 TEMPO 3000 BR

TAF TAF LFPN
Valide du 17 à 18h jusqu'au 18 à 03h UTC


171700Z 1718/1803 VRB02KT CAVOK
TEMPO 1718/1803 3000 BR
PROB40
TEMPO 1723/1803 0900 FG VV///
ATIS : +33 1 39 56 54 70
Pas de NOTAMs connus pour ce terrain.



MET'MAP, la Météo Aéronautique d'un coup d'oeil ! - Copyright ORBIFLY Décembre 2007 - Disclaimer

ORBIFLY MET'MAP TEAM :

Programmation & Développement : Alexandra Zaïnal
Conception & Développement : Baudouin d'Aumeries
Co-Programmation & Développement : Marc-Olivier Méhu
Soutien technique & logistique : Manuel Goepfert

Contact : metmap@orbifly.com




SOURCES & CREDITS :

   NOAA